Location: B�hl
(48.6968°N, 8.1352°E)
Time: 02:01:08
(UTC+00:00)

CZ-2C R/B - Pass Details

Date: 08 March 2021
Orbit: 783 x 871 km, 98.2° (Epoch: 16 April)

Event Time Altitude Azimuth Distance (km) Brightness Sun altitude
Rises 19:47:49 0° 7° (N) 3,420 6.1 -24.4°
Reaches altitude 10° 19:50:27 10° 357° (N) 2,467 5.4 -24.8°
Maximum altitude 19:55:09 31° 298° (WNW) 1,429 4.5 -25.5°
Drops below altitude 10° 19:59:45 10° 238° (WSW) 2,403 5.4 -26.2°
Sets 20:02:17 0° 228° (SW) 3,317 6.1 -26.5°
